Hourly Data Report for October 14, 2013

All times are specified in Local Standard Time (LST). Add 1 hour to adjust for Daylight Saving Time where and when it is observed.

PETAWAWA AWOS 2
ONTARIO

45°57'00.000" N
77°19'00.000" W
130.10 m
6106396
71625
YWA

Download Data

Hourly Data (October 2013)
Hourly Data Report for October 14, 2013
Temp Definition
°C
Dew Point Temp Definition
°C
Rel Hum Definition
%
Wind Dir Definition
10's deg

Wind Spd Definition
km/h
Visibility Definition
km
Stn Press Definition
kPa
Hmdx Definition


Wind Chill Definition


Weather Definition


TIME
00:00 14.2 14.2 100 26 6 3.4 100.82      
01:00 14.0 13.3 96 26 4 15.0 100.84      
02:00 12.8 12.0 95 27 4 15.0 100.85      
03:00 11.1 10.4 95 27 6 15.0 100.84      
04:00 9.9 9.4 97 27 6 15.0 100.88      
05:00 8.2 7.6 96 25 6 15.0 100.90      
06:00 8.2 7.9 98 27 6 15.0 100.94      
07:00 8.5 8.1 97 28 6 15.0 100.99      
08:00 10.0 9.2 95 29 7 15.0 101.06      
09:00 11.2 9.8 91 29 13 15.0 101.08      
10:00 12.5 10.5 88 29 9 15.0 101.08      
11:00 12.9 10.1 83 28 9 15.0 101.09      
12:00 14.2 10.0 76 3 4 15.0 101.04      
13:00 15.5 10.8 74 8 9 15.0 100.98      
14:00 16.9 7.8 55 31 9 15.0 100.94      
15:00 17.5 7.3 51 30 15 15.0 100.93      
16:00 16.7 6.4 51 31 19 15.0 100.95      
17:00 15.7 5.4 50 29 9 15.0 100.99      
18:00 13.3 4.3 54 28 6 15.0 101.04      
19:00 9.7 6.1 78 27 4 15.0 101.08      
20:00 7.7 5.1 84 21 4 15.0 101.10      
21:00 7.2 4.2 81 27 4 15.0 101.12      
22:00 4.9 3.7 92 24 4 15.0 101.16      
23:00 4.6 3.0 89 20 4 15.0 101.13      

Notes on Data Quality.

Legend

  • E = Estimated
  • M = Missing
  • NA = Not Available
  • ‡ = Partner data that is not subject to review by the National Climate Archives
Date modified: